[[{"header":{"parameterUnit":"m.s-1","parameterCategory":1,"la1":30.2991,"la2":30.254,"lo1":-89.0895,"lo2":-89.0444,"dy":0.0017,"dx":0.0017,"nx":28,"ny":28,"refTime":"2024-05-24T21:00:00:Z","depth":0,"parameterNumber":2,"parameterNumberName":"U-component_of_WINDS"},"data":[0,0,0,0,0,0,0,0,0,0,0,0,0,0,0,0,0,0,0,0,0,0,0,0,0,0,0,0,0,0,0,0,0,0,0,0,0,0,0,0,0,0,0,0,0,0,0,0,0,0,0,0,0,0,0,0,0,0,-0.016,-0.0161,0,-0.0235,-0.0236,-0.0237,-0.0285,-0.0286,-0.0286,-0.0286,-0.0361,-0.0362,-0.0364,0,0,0,0,0,0,0,0,0,0,0,0,0,-0.0057,-0.0059,-0.016,-0.0161,-0.0162,-0.0235,-0.0236,-0.0237,-0.0285,-0.0286,-0.0286,-0.0286,-0.036,-0.0362,-0.0364,0,0,0,0,0,0,0,0,0,0,0,0,0,-0.0114,-0.0059,-0.016,-0.0195,-0.0199,-0.0235,-0.0236,-0.0237,-0.0285,-0.0286,-0.0286,-0.0286,-0.036,-0.0362,-0.0365,-0.0371,0,0,-0.0372,-0.0374,0,0,0,0,0,0,0,0,-0.011,-0.0118,-0.0189,-0.0192,-0.0197,-0.0251,-0.0227,-0.0282,-0.0285,-0.0252,-0.0286,-0.0287,-0.0324,-0.0329,-0.0343,-0.0375,-0.0378,-0.0373,-0.0374,-0.0375,-0.0376,0,0,0,0,0,0,0,-0.0107,-0.0115,-0.019,-0.0189,-0.0194,-0.0206,-0.0215,-0.0238,-0.0284,-0.0255,-0.0259,-0.0267,-0.0326,-0.034,-0.0345,-0.0379,-0.0373,-0.0375,-0.0376,-0.0377,-0.0423,-0.0423,0,0,0,0,0,0,-0.0097,-0.0111,-0.0187,-0.0192,-0.0154,-0.0208,-0.0217,-0.0233,-0.0284,-0.0293,-0.0267,-0.0269,-0.0335,-0.0342,-0.0347,-0.036,-0.0375,-0.0378,-0.0379,-0.0424,-0.0423,-0.0423,0,0,0,0,0,0,-0.0095,-0.0104,-0.0184,-0.0153,-0.0164,-0.0209,-0.0227,-0.0235,-0.0248,-0.0293,-0.0302,-0.0272,-0.0336,-0.0344,-0.0366,-0.0364,-0.0379,-0.0381,-0.0424,-0.0423,-0.0423,-0.0385,0,0,0,0,0,0,-0.0092,-0.0102,-0.0106,-0.0152,-0.0165,-0.0201,-0.0226,-0.0236,-0.0253,-0.0257,-0.0301,-0.0308,-0.0337,-0.0362,-0.0368,-0.0367,-0.0383,-0.0424,-0.0424,-0.0423,-0.0387,-0.0383,-0.0381,0,0,0,0,0,-0.0088,-0.0091,-0.0105,-0.0114,-0.017,-0.0201,-0.0209,-0.0242,-0.0253,-0.0256,-0.0285,-0.0307,-0.0363,-0.0364,-0.0371,-0.0371,-0.0425,-0.0424,-0.0423,-0.0388,-0.0384,-0.0381,0,0,0,0,0,0,-0.0041,-0.0098,-0.0114,-0.0133,-0.0162,-0.0209,-0.0215,-0.0236,-0.0263,-0.0265,-0.0305,-0.0314,-0.0333,-0.0354,-0.0354,-0.0382,-0.0396,-0.0397,-0.0367,-0.0363,-0.036,-0.0355,-0.0385,0,0,0,0,0,-0.0034,-0.0055,-0.0102,-0.0114,-0.0128,-0.0169,-0.0183,-0.0207,-0.0239,-0.0251,-0.0282,-0.0311,-0.0336,-0.035,-0.0375,-0.039,-0.0401,-0.0394,-0.0391,-0.0388,-0.0388,-0.0399,-0.0397,-0.042,-0.042,-0.042,0,0,-0.0017,-0.005,-0.0061,-0.0105,-0.0131,-0.0152,-0.0179,-0.0199,-0.0215,-0.0254,-0.0277,-0.0301,-0.0336,-0.0355,-0.0365,-0.0373,-0.0384,-0.0387,-0.0384,-0.0386,-0.0398,-0.0396,-0.0394,-0.042,-0.042,-0.042,0,0,0.0002,-0.0025,-0.0039,-0.0064,-0.0103,-0.013,-0.0134,-0.0178,-0.0196,-0.022,-0.025,-0.0269,-0.031,-0.0335,-0.0352,-0.0345,-0.0366,-0.0352,-0.0335,-0.0346,-0.0344,-0.0342,-0.0341,-0.034,-0.0352,-0.0352,-0.0351,0,0.0027,-0.0006,-0.0042,-0.0062,-0.0081,-0.0119,-0.0133,-0.0156,-0.02,-0.0212,-0.0221,-0.0275,-0.0301,-0.0327,-0.0326,-0.0338,-0.0344,-0.0347,-0.0341,-0.034,-0.0339,-0.0338,-0.0337,-0.035,-0.035,-0.035,-0.035,0,0.0027,0.0004,-0.0002,-0.0046,-0.0066,-0.0082,-0.0122,-0.0137,-0.0159,-0.0186,-0.0211,-0.0244,-0.0277,-0.0285,-0.0306,-0.0314,-0.0319,-0.0334,-0.0349,-0.0335,-0.0334,-0.0334,-0.0347,-0.0348,-0.0348,-0.0349,0,0,0.0073,0.0008,0.0006,-0.0015,-0.0061,-0.0079,-0.0098,-0.0131,-0.0145,-0.0174,-0.0191,-0.0226,-0.0241,-0.0261,-0.0285,-0.0294,-0.0288,-0.0309,-0.031,-0.0305,-0.03,-0.0289,-0.0288,-0.0302,-0.0302,-0.0302,-0.0298,0,0.0085,0.0048,0.0014,-0.0011,-0.0033,-0.0069,-0.0086,-0.0116,-0.0141,-0.0164,-0.0191,-0.0216,-0.0233,-0.0246,-0.0257,-0.0286,-0.0287,-0.0287,-0.0318,-0.0319,-0.0309,-0.0288,-0.0276,-0.027,-0.0298,-0.0298,-0.0298,0,0.0093,0.0063,0.0036,-0.001,-0.002,-0.0035,-0.0069,-0.009,-0.0125,-0.0143,-0.0166,-0.0193,-0.0214,-0.0227,-0.0258,-0.0257,-0.0272,-0.0289,-0.0289,-0.0294,-0.0308,-0.0293,-0.0269,-0.0269,-0.0298,-0.0298,-0.0298,0,0.0128,0.0081,0.0059,0.0042,-0.0012,-0.0021,-0.0044,-0.008,-0.0098,-0.0128,-0.0141,-0.0172,-0.0189,-0.0212,-0.0246,-0.0253,-0.0274,-0.029,-0.029,-0.0289,-0.0293,-0.0293,-0.0272,-0.0301,-0.0301,-0.0301,-0.0301,0,0.0143,0.0128,0.0073,0.0059,0.0041,0.0002,-0.0015,-0.0041,-0.0073,-0.0093,-0.0125,-0.0143,-0.0186,-0.0209,-0.0235,-0.0258,-0.0265,-0.028,-0.0287,-0.0278,-0.0276,-0.0289,-0.029,-0.0301,-0.0301,-0.0301,-0.0301,0,0.0179,0.0142,0.0115,0.0065,0.0053,0.0041,-0.0001,-0.0016,-0.0044,-0.0068,-0.0076,-0.012,-0.0149,-0.0185,-0.0224,-0.0242,-0.0262,-0.0272,-0.025,-0.0255,-0.0253,-0.0253,-0.0241,-0.0242,-0.0269,-0.0268,-0.0268,0,0.0191,0.0178,0.0127,0.0111,0.0089,0.0064,0.0044,0.0005,-0.0014,-0.0057,-0.0067,-0.0098,-0.0125,-0.0169,-0.0204,-0.0235,-0.0247,-0.024,-0.0251,-0.0242,-0.0248,-0.0247,-0.0249,-0.0238,-0.0237,-0.0237,-0.0236,0,0.0216,0.0197,0.017,0.0136,0.0113,0.0084,0.0054,0.0043,-0.0002,-0.0022,-0.0053,-0.0074,-0.0115,-0.0146,-0.0182,-0.0205,-0.0228,-0.0233,-0.0235,-0.0226,-0.0213,-0.0221,-0.0244,-0.0233,-0.0233,-0.0233,-0.0234,-0.0234,0.0239,0.0225,0.0186,0.0156,0.0129,0.0102,0.0085,0.0054,0.0027,-0.001,-0.0032,-0.0062,-0.0098,-0.0148,-0.0171,-0.0195,-0.0203,-0.0205,-0.0206,-0.0206,-0.0204,-0.0209,-0.0201,-0.0201,-0.0201,-0.0201,-0.0201,0,0.0261,0.0234,0.0206,0.0165,0.0141,0.012,0.0085,0.0067,0.004,0.0008,-0.0019,-0.0054,-0.0085,-0.0122,-0.0156,-0.0167,-0.0179,-0.0175,-0.0175,-0.018,-0.0194,-0.019,-0.0165,-0.0165,-0.0165,-0.0165,-0.0165,-0.0165,0.0269,0.0244,0.0221,0.0182,0.0155,0.0124,0.0106,0.008,0.0054,0.0015,-0.0011,-0.0036,-0.007,-0.0107,-0.0136,-0.0146,-0.0157,-0.015,-0.0163,-0.0176,-0.0179,-0.0182,-0.0178,-0.0151,-0.0151,-0.0147,-0.0147,-0.0147]},{"header":{"parameterUnit":"m.s-1","parameterCategory":1,"la1":30.2991,"la2":30.254,"lo1":-89.0895,"lo2":-89.0444,"dy":0.0017,"dx":0.0017,"nx":28,"ny":28,"refTime":"2024-05-24T21:00:00:Z","depth":0,"parameterNumber":3,"parameterNumberName":"V-component_of_WINDS"},"data":[0,0,0,0,0,0,0,0,0,0,0,0,0,0,0,0,0,0,0,0,0,0,0,0,0,0,0,0,0,0,0,0,0,0,0,0,0,0,0,0,0,0,0,0,0,0,0,0,0,0,0,0,0,0,0,0,0,0,5.2603,5.2603,0,5.2625,5.2625,5.2626,5.2575,5.2574,5.2572,5.257,5.259,5.2592,5.2594,0,0,0,0,0,0,0,0,0,0,0,0,0,5.2512,5.2514,5.2603,5.2603,5.2603,5.2625,5.2625,5.2626,5.2575,5.2573,5.2571,5.257,5.2589,5.2592,5.2594,0,0,0,0,0,0,0,0,0,0,0,0,0,5.2545,5.2515,5.2603,5.2581,5.2579,5.2625,5.2625,5.2626,5.2576,5.2573,5.2571,5.2569,5.2589,5.2592,5.2595,5.2662,0,0,5.2604,5.2605,0,0,0,0,0,0,0,0,5.2543,5.2548,5.2584,5.2583,5.2581,5.2595,5.2601,5.2638,5.2576,5.2577,5.257,5.2568,5.2593,5.2596,5.2605,5.2662,5.2663,5.2604,5.2606,5.2607,5.2608,0,0,0,0,0,0,0,5.2541,5.2547,5.2611,5.2584,5.2583,5.2569,5.2571,5.2607,5.2598,5.2577,5.2573,5.2577,5.2592,5.2602,5.2605,5.2664,5.2604,5.2607,5.2609,5.261,5.2775,5.2777,0,0,0,0,0,0,5.2542,5.2545,5.2611,5.2612,5.2556,5.2572,5.2574,5.2593,5.2598,5.2596,5.2579,5.2574,5.2598,5.2602,5.2606,5.2683,5.2607,5.261,5.2612,5.2772,5.2775,5.2778,0,0,0,0,0,0,5.254,5.2548,5.261,5.2578,5.2585,5.2576,5.2597,5.2594,5.2605,5.2599,5.2597,5.2591,5.2597,5.2602,5.2648,5.2683,5.2611,5.2614,5.2769,5.2773,5.2777,5.2839,0,0,0,0,0,0,5.2538,5.2548,5.2574,5.2579,5.2587,5.2653,5.26,5.2597,5.2611,5.2605,5.2611,5.2609,5.2595,5.2644,5.2651,5.2686,5.2617,5.2766,5.2771,5.2776,5.2834,5.2845,5.2854,0,0,0,0,0,5.2535,5.2591,5.2576,5.2584,5.262,5.2655,5.2659,5.2643,5.2614,5.2639,5.2636,5.2609,5.2679,5.2649,5.2657,5.2693,5.2764,5.277,5.2775,5.2829,5.2843,5.2854,0,0,0,0,0,0,5.2589,5.2591,5.2575,5.2634,5.2645,5.2646,5.2678,5.2658,5.2676,5.267,5.2648,5.265,5.27,5.2701,5.2668,5.2757,5.2716,5.2724,5.2754,5.2767,5.2777,5.2774,5.2619,0,0,0,0,0,5.2609,5.2639,5.2638,5.269,5.2696,5.2687,5.2702,5.2688,5.2698,5.2702,5.2702,5.2712,5.2735,5.2751,5.2773,5.2834,5.2834,5.2863,5.2873,5.2882,5.2888,5.2918,5.2931,5.2797,5.2797,5.2797,0,0,5.2648,5.2652,5.2672,5.2701,5.2708,5.2738,5.2691,5.2725,5.2746,5.2707,5.275,5.2751,5.276,5.2814,5.2837,5.2816,5.2925,5.2889,5.2896,5.2897,5.2926,5.2938,5.295,5.2801,5.28,5.28,0,0,5.2734,5.2742,5.2785,5.2794,5.2805,5.2798,5.2809,5.2813,5.2812,5.2856,5.2827,5.2851,5.2893,5.2901,5.291,5.2999,5.2975,5.3007,5.3059,5.3089,5.3099,5.3108,5.3138,5.315,5.3014,5.3014,5.3014,0,5.2782,5.2827,5.281,5.2846,5.2859,5.2826,5.2868,5.2877,5.2894,5.2903,5.288,5.2931,5.2935,5.2989,5.3011,5.302,5.303,5.3005,5.3099,5.3108,5.3117,5.3145,5.3157,5.3018,5.3017,5.3017,5.3016,0,5.2883,5.2915,5.2948,5.2967,5.2983,5.3023,5.3011,5.3029,5.3014,5.301,5.3053,5.3057,5.3079,5.3091,5.3077,5.3143,5.3129,5.3103,5.3061,5.3133,5.3159,5.317,5.3023,5.3022,5.302,5.3019,0,0,5.3004,5.3013,5.3025,5.3032,5.3043,5.3066,5.3103,5.3125,5.314,5.3154,5.3183,5.3219,5.3195,5.3206,5.3192,5.3219,5.3287,5.3189,5.3189,5.3206,5.3358,5.3376,5.3389,5.3272,5.3274,5.3275,5.3357,0,5.3088,5.3153,5.3139,5.3201,5.3229,5.3199,5.3231,5.3239,5.3236,5.3258,5.3254,5.3279,5.3246,5.3252,5.3278,5.3274,5.3317,5.3268,5.3297,5.3298,5.3294,5.3403,5.3422,5.3499,5.3367,5.3369,5.337,0,5.3194,5.3212,5.3278,5.3283,5.3294,5.3323,5.3341,5.3364,5.3373,5.3368,5.338,5.3361,5.3396,5.3355,5.3402,5.3369,5.338,5.338,5.3383,5.3383,5.3337,5.3405,5.3523,5.3534,5.3386,5.3385,5.3384,0,5.3273,5.3314,5.3358,5.3366,5.3373,5.3394,5.3398,5.3404,5.3418,5.3434,5.3442,5.3462,5.3472,5.3487,5.3473,5.3445,5.3522,5.348,5.3517,5.3518,5.3533,5.3532,5.3653,5.3544,5.3544,5.3544,5.3543,0,5.3367,5.3409,5.3394,5.3421,5.3465,5.3449,5.3493,5.3493,5.3499,5.3524,5.3499,5.3523,5.3505,5.3527,5.3516,5.3556,5.3561,5.3557,5.3554,5.3559,5.3559,5.3564,5.3558,5.3547,5.3546,5.3545,5.3545,0,5.3462,5.3454,5.35,5.3503,5.3505,5.3538,5.3539,5.3564,5.3559,5.3591,5.3598,5.3589,5.3614,5.3603,5.3628,5.3621,5.3672,5.3662,5.3669,5.3666,5.3703,5.3699,5.383,5.3846,5.3729,5.373,5.3731,0,5.3522,5.3553,5.356,5.3575,5.3581,5.3607,5.362,5.3605,5.362,5.3633,5.3655,5.3678,5.3695,5.3736,5.3731,5.3751,5.374,5.3785,5.3743,5.3746,5.3738,5.3736,5.3738,5.3793,5.3794,5.3795,5.3796,0,5.3628,5.3623,5.3644,5.3664,5.3682,5.3697,5.3709,5.3723,5.3708,5.3726,5.3752,5.3765,5.3792,5.3814,5.3831,5.3833,5.3812,5.381,5.3819,5.3823,5.3825,5.3823,5.369,5.3806,5.3805,5.3804,5.3804,5.3803,5.3706,5.3731,5.374,5.3764,5.3772,5.3784,5.3807,5.3805,5.3826,5.3847,5.3837,5.3866,5.3873,5.3894,5.3899,5.3921,5.3903,5.3917,5.392,5.3923,5.3928,5.3824,5.3924,5.3924,5.3923,5.3923,5.3923,0,5.3809,5.3813,5.3836,5.3854,5.3873,5.3853,5.3865,5.3882,5.3909,5.3918,5.3935,5.3964,5.3986,5.3983,5.4003,5.402,5.4011,5.4026,5.4023,5.4024,5.3943,5.3932,5.4033,5.4033,5.4033,5.4033,5.4033,5.4033,5.3864,5.3906,5.3901,5.3946,5.3949,5.3978,5.3987,5.3998,5.4005,5.4038,5.4056,5.4055,5.4059,5.4079,5.4097,5.4096,5.4103,5.4121,5.4116,5.4041,5.403,5.4019,5.4009,5.4124,5.4124,5.4194,5.4195,5.4196]}]]